Regional Weather Roundup
Issued by NWS

Home | Current Version | Previous Version | Graphics & Text | Print | Product List | Glossary On
Versions: 1 2 3 4 5 6 7 8 9 10 11 12 13 14 15 16 17 18 19 20 21 22 23 24 25 26 27 28 29 30 31 32 33 34 35 36 37 38 39 40 41 42 43 44 45 46 47 48 49 50
000
ASUS43 KDMX 292307
RWRIA

WEATHER ROUNDUP FOR IOWA
NATIONAL WEATHER SERVICE DES MOINES IA
600 PM CDT MON SEP 29 2014

NOTE: "FAIR" INDICATES FEW OR NO CLOUDS BELOW 12,000 FEET WITH NO
SIGNIFICANT WEATHER AND/OR OBSTRUCTIONS TO VISIBILITY.

* - THESE STATIONS ARE NOT NWS STATIONS...THUS NOT UNDER NWS
QUALITY CONTROL.  THEY ALSO DO NOT REPORT WEATHER SUCH
AS PRECIPITATION OR FOG.

IAZ001>003-012>014-020>022-031>034-043>046-300000-
   NORTHWEST IOWA

CITY           SKY/WX    TMP DP  RH WIND       PRES   REMARKS
CARROLL *      SUNNY     73  63  68 NE6       29.98F
CHEROKEE *     MOSUNNY   66  61  82 NE7       30.01S
DENISON *      MOSUNNY   73  63  68 NE6       29.96F
LE MARS *      SUNNY     73  63  68 E9        29.99S
ORANGE CITY *  SUNNY     70  59  68 E8        30.01S
SHELDON *      MOSUNNY   66  57  72 NE10      30.02R
SIOUX CITY     MOSUNNY   76  63  64 E14       29.96F
SPENCER        PTSUNNY   64  57  78 NE13      30.03F
STORM LAKE *   SUNNY     64  59  82 NE8       30.03S
$$

IAZ055>058-069>071-079>083-090>094-300000-
   SOUTHWEST IOWA

CITY           SKY/WX    TMP DP  RH WIND       PRES   REMARKS
ATLANTIC *     PTSUNNY   81  57  44 SW5       29.96S HX  81
AUDUBON *      PTSUNNY   75  61  60 NE5       29.99S
CLARINDA *     SUNNY     81  55  41 SE5       29.97F HAZE    HX  80
COUNCIL BLFS * SUNNY     81  63  54 E6        29.95S HX  82
CRESTON *      MOSUNNY   79  57  47 S7        29.98F HX  80
HARLAN  *      PTSUNNY   79  63  57 NE5       30.00R HX  80
LAMONI         SUNNY     80  57  45 S3        29.98F HX  80
RED OAK *      HAZE      82  57  42 S5        29.96S VSB 1/2 HX  82
SHENANDOAH *   SUNNY     82  55  39 SE9       29.96S HX  82
$$

IAZ047>049-059>061-072>074-084-300000-
   CENTRAL IOWA

CITY           SKY/WX    TMP DP  RH WIND       PRES   REMARKS
AMES           SUNNY     77  63  61 N8        29.97S
ANKENY *       MOSUNNY   79  64  61 SW3       29.96S HX  81
CHARITON *     SUNNY     81  61  50 SW3       29.97F HX  81
DES MOINES     PTSUNNY   79  61  53 CALM      29.96F HX  80
GRINNELL*      CLEAR     77  61  57 CALM      29.97S
KNOXVILLE *    MOCLDY    79  59  50 CALM      29.96S HX  80
MARSHALLTOWN   CLEAR     76  62  62 N12       29.96S
PELLA *        PTCLDY    79  59  50 NW5       29.98S HX  80
PERRY *        PTSUNNY   79  61  53 N5        29.97S HX  80
$$

IAZ004>006-015-016-023>025-035-036-300000-
   NORTH CENTRAL IOWA

CITY           SKY/WX    TMP DP  RH WIND       PRES   REMARKS
ALGONA *       CLOUDY    64  57  77 NE9       30.03F
CLARION *      CLOUDY    64  61  88 NE8G14    30.02F
ESTHERVILLE    CLOUDY    62  55  77 NE13      30.04F
FORT DODGE *   CLOUDY    66  59  77 NE9       30.02F
MASON CITY     PTCLDY    64  56  75 NE13      30.05S
FOREST CITY *  PTCLDY    64  55  72 NE6       30.03F
IOWA FALLS *     N/A     68  59  73 N9G17     30.01R
$$

IAZ007>011-017>019-026>030-037>042-050>054-066-300000-
   NORTHEAST IOWA

CITY           SKY/WX    TMP DP  RH WIND       PRES   REMARKS
CEDAR RAPIDS   MOCLDY    79  61  53 SW10      29.94F HX  80
CHARLES CITY * CLEAR     66  55  68 NE12      30.02S
CLINTON *      CLEAR     79  55  44 NW5       29.96S
DECORAH *      CLEAR     59  52  77 N9G17     30.03R
MONTICELLO *   MOCLDY    79  59  50 W6        29.93F HX  80
OELWEIN *      CLEAR     70  59  68 N13G20    29.99S
WATERLOO       CLEAR     69  60  73 N13       29.98R
$$

IAZ064-065-067-068-078-300000-
   EAST CENTRAL IOWA

CITY           SKY/WX    TMP DP  RH WIND       PRES   REMARKS
IOWA CITY      MOCLDY    80  60  50 W7        29.95F HX  81
MT. PLEASANT * CLEAR     81  54  39 CALM      29.96S HX  80
MUSCATINE *    MOCLDY    82  57  42 W6        29.94F HX  82
$$

IAZ062-063-075>077-085>089-095>099-300000-
   SOUTHEAST IOWA

CITY           SKY/WX    TMP DP  RH WIND       PRES   REMARKS
BURLINGTON     CLEAR     81  57  43 W3        29.96S HX  81
FAIRFIELD *    CLEAR     81  59  47 W5        29.96F HX  81
FORT MADISON * CLEAR     82  57  42 CALM      29.97S HX  82
KEOKUK *       CLEAR     79  63  57 CALM      29.96S HX  80
OSKALOOSA *      N/A     81  59  47 W7        29.97S HX  81
CENTERVILLE *  CLEAR     81  57  44 CALM      29.99S HX  81
OTTUMWA        CLEAR     80  59  48 SW5       29.96F HX  81
WASHINGTON *   CLEAR     81  59  47 SW6       29.96S HX  81
$$

ABBREVIATIONS USED IN REMARKS
   TC - TEMPERATURES IN CELSIUS
  WCI - WIND CHILL INDEX
   HX - HEAT INDEX
  VSB - VISIBILITY
$$



USA.gov is the U.S. government's official web portal to all federal, state and local government web resources and services.